FW3054 Weather Reports


time (UTC)temp
C
wind
direction
speed
KPH
gust
KPH
rain 1hr
cm
rain 24hr
cm
rain mn
cm
humidity
%
barometer
mb
20260510055521 12 0.0 0.0 0.00 0.00 0.00 85 1016.2
20260510054546 12 0.0 0.0 0.00 0.00 0.00 85 1015.8
20260510053521 12 0.0 0.0 0.00 0.00 0.00 85 1015.8
20260510052521 12 0.0 0.0 0.00 0.00 0.00 84 1015.9
20260510051521 13 0.0 0.0 0.00 0.00 0.00 84 1015.9
20260510050521 13 0.0 0.0 0.00 0.00 0.00 84 1015.8
20260510045521 13 0.0 0.0 0.00 0.00 0.00 83 1015.6
20260510044521 13 0.0 0.0 0.00 0.00 0.00 83 1015.6
20260510043521 13 0.0 0.0 0.00 0.00 0.00 82 1015.4
20260510042521 13 0.0 0.0 0.00 0.00 0.00 81 1015.5
20260510041612 14 0.0 0.0 0.00 0.00 0.00 81 1015.4
20260510040521 14 0.0 1.6 0.00 0.00 0.00 80 1015.3
20260510035521 14 0.0 0.0 0.00 0.00 0.00 79 1015.1
20260510034521 14 0.0 0.0 0.00 0.00 0.00 79 1014.9
20260510033521 15 0.0 0.0 0.00 0.00 0.00 78 1015.2
20260510032521 15 0.0 0.0 0.00 0.00 0.00 78 1015.3
20260510031521 15 0.0 0.0 0.00 0.00 0.00 78 1014.9
20260510030521 15 0.0 0.0 0.00 0.00 0.00 77 1015.0
20260510025521 15 0.0 0.0 0.00 0.00 0.00 76 1015.2
20260510024521 15 0.0 0.0 0.00 0.00 0.00 75 1014.8
20260510023521 16 0.0 0.0 0.00 0.00 0.00 74 1014.9
20260510022521 16 0.0 0.0 0.00 0.00 0.00 73 1014.9
20260510021611 16 0.0 0.0 0.00 0.00 0.00 73 1014.4
20260510020521 16 0.0 0.0 0.00 0.00 0.00 72 1014.3
20260510015521 16 0.0 0.0 0.00 0.00 0.00 71 1014.1
20260510014521 16 0.0 0.0 0.00 0.00 0.00 70 1013.7
20260510013521 16 0.0 0.0 0.00 0.00 0.00 69 1013.5
20260510012521 16 0.0 0.0 0.00 0.00 0.00 69 1013.3
20260510011546 17 0.0 0.0 0.00 0.00 0.00 68 1013.0
20260510010546 17 0.0 0.0 0.00 0.00 0.00 68 1012.9
20260510005521 17 0.0 1.6 0.00 0.00 0.00 67 1012.9
20260510004521 17 0.0 1.6 0.00 0.00 0.00 66 1012.8
20260510003521 18 0.0 1.6 0.00 0.00 0.00 64 1012.7
20260510002546 18 0.0 1.6 0.00 0.00 0.00 64 1012.7
20260510001521 18 0.0 0.0 0.00 0.00 0.00 63 1012.1
20260510000546 19 0.0 0.0 0.00 0.00 0.00 62 1012.1
20260509235521 19 0.0 4.8 0.00 0.00 0.00 59 1011.8
20260509234521 20 0.0 0.0 0.00 0.00 0.00 59 1011.8
20260509233521 20 0.0 0.0 0.00 0.00 0.00 58 1011.6
20260509232521 20 0.0 0.0 0.00 0.00 0.00 61 1011.7
20260509231521 20 0.0 1.6 0.00 0.00 0.00 58 1011.3
20260509230521 20 0.0 1.6 0.00 0.00 0.00 58 1011.3
20260509225521 20 0.0 3.2 0.00 0.00 0.00 59 1011.3
20260509224521 21 23 1.6 6.4 0.00 0.00 0.00 57 1011.4
20260509223521 21 0.0 4.8 0.00 0.00 0.00 58 1011.5
20260509222546 21 0.0 3.2 0.00 0.00 0.00 58 1011.4
20260509221521 21 0.0 3.2 0.00 0.00 0.00 57 1011.4
20260509220521 21 23 3.2 8.0 0.00 0.00 0.00 56 1011.4
20260509215520 22 0 1.6 6.4 0.00 0.00 0.00 55 1011.1
20260509214521 22 0.0 1.6 0.00 0.00 0.00 54 1010.9
20260509213521 22 0 1.6 4.8 0.00 0.00 0.00 52 1010.7
20260509212521 23 23 1.6 4.8 0.00 0.00 0.00 52 1010.6
20260509211521 23 0.0 1.6 0.00 0.00 0.00 54 1010.7
20260509210546 23 23 3.2 9.7 0.00 0.00 0.00 52 1010.7
20260509205521 23 0.0 4.8 0.00 0.00 0.00 53 1010.8
20260509204521 23 23 1.6 3.2 0.00 0.00 0.00 54 1010.8
20260509203520 23 23 1.6 4.8 0.00 0.00 0.00 53 1010.8
20260509202521 23 23 1.6 3.2 0.00 0.00 0.00 53 1010.7
20260509201521 23 23 1.6 8.0 0.00 0.00 0.00 51 1010.9
20260509200521 23 23 1.6 6.4 0.00 0.00 0.00 51 1010.8
20260509195546 23 0 1.6 3.2 0.00 0.00 0.00 52 1010.7
20260509194521 23 23 1.6 6.4 0.00 0.00 0.00 53 1010.8
20260509193520 23 23 1.6 6.4 0.00 0.00 0.00 50 1011.0
20260509192521 24 0.0 3.2 0.00 0.00 0.00 51 1011.4
20260509191520 24 0.0 3.2 0.00 0.00 0.00 54 1011.4
20260509190520 24 23 1.6 4.8 0.00 0.00 0.00 47 1011.1
20260509185520 25 0 1.6 4.8 0.00 0.00 0.00 47 1011.2
20260509184546 25 0 1.6 4.8 0.00 0.00 0.00 44 1011.1
20260509183521 26 0.0 1.6 0.00 0.00 0.00 47 1011.4
20260509182520 26 0.0 1.6 0.00 0.00 0.00 46 1011.7
20260509181520 27 23 1.6 6.4 0.00 0.00 0.00 40 1011.8
20260509180520 28 0.0 3.2 0.00 0.00 0.00 36 1011.8
20260509175610 28 23 1.6 4.8 0.00 0.00 0.00 35 1011.9
20260509174520 27 0.0 1.6 0.00 0.00 0.00 39 1012.0
20260509173520 27 0.0 3.2 0.00 0.00 0.00 39 1012.0
20260509172520 26 0.0 1.6 0.00 0.00 0.00 43 1012.1
20260509171520 25 0.0 1.6 0.00 0.00 0.00 46 1012.4
20260509170545 25 0.0 3.2 0.00 0.00 0.00 46 1012.6
20260509165520 25 0.0 3.2 0.00 0.00 0.00 51 1012.7
20260509164521 23 0.0 3.2 0.00 0.00 0.00 54 1012.6
20260509163520 23 135 1.6 3.2 0.00 0.00 0.00 53 1012.7
20260509162520 22 0.0 3.2 0.00 0.00 0.00 56 1012.8
20260509161522 21 0.0 1.6 0.00 0.00 0.00 58 1012.8
20260509160522 21 0.0 3.2 0.00 0.00 0.00 63 1012.9
20260509155522 20 0.0 1.6 0.00 0.00 0.00 63 1012.8
20260509154522 20 23 1.6 3.2 0.00 0.00 0.00 63 1012.8
20260509153522 20 0.0 3.2 0.00 0.00 0.00 66 1012.8
20260509152522 19 0.0 3.2 0.00 0.00 0.00 66 1012.9
20260509151522 18 0.0 3.2 0.00 0.00 0.00 68 1012.8
20260509150522 17 0.0 1.6 0.00 0.00 0.00 72 1012.9
20260509145522 17 0.0 0.0 0.00 0.00 0.00 75 1012.7
20260509144522 16 0.0 1.6 0.00 0.00 0.00 75 1012.6
20260509143612 16 0.0 0.0 0.00 0.00 0.00 80 1012.8
20260509142522 15 0.0 1.6 0.00 0.00 0.00 81 1012.5
20260509141522 14 0.0 1.6 0.00 0.00 0.00 84 1012.5
20260509140547 13 0.0 1.6 0.00 0.00 0.00 88 1012.6
20260509135522 13 0.0 1.6 0.00 0.00 0.00 90 1012.7
20260509134522 12 0.0 1.6 0.00 0.00 0.00 90 1013.0
20260509133522 12 0.0 0.0 0.00 0.00 0.00 88 1012.9
20260509132522 11 0.0 1.6 0.00 0.00 0.00 86 1012.9
20260509131522 11 0.0 1.6 0.00 0.00 0.00 84 1012.6
20260509130522 10 0.0 0.0 0.00 0.00 0.00 82 1012.5
20260509125522 10 0.0 1.6 0.00 0.00 0.00 80 1012.7
20260509124522 10 0.0 1.6 0.00 0.00 0.00 80 1012.8
20260509123522 9 0.0 1.6 0.00 0.00 0.00 81 1012.6
20260509122522 9 0.0 0.0 0.00 0.00 0.00 81 1012.6
20260509121522 8 0.0 0.0 0.00 0.00 0.00 82 1012.8
20260509120522 8 0.0 0.0 0.00 0.00 0.00 82 1013.1
20260509115522 8 0.0 0.0 0.00 0.00 0.00 83 1013.1
20260509114522 8 0.0 0.0 0.00 0.00 0.00 83 1013.3
20260509113547 8 0.0 0.0 0.00 0.00 0.00 83 1013.2
20260509112522 8 0.0 1.6 0.00 0.00 0.00 83 1013.1
20260509111522 8 0.0 0.0 0.00 0.00 0.00 84 1013.0
20260509110522 7 0.0 0.0 0.00 0.00 0.00 85 1013.0
20260509105521 7 0.0 0.0 0.00 0.00 0.00 86 1013.1
20260509104522 7 0.0 0.0 0.00 0.00 0.00 86 1012.9
20260509103702 7 0.0 0.0 0.00 0.00 0.00 87 1012.8
20260509102522 7 0.0 0.0 0.00 0.00 0.00 87 1012.6
20260509101547 8 0.0 1.6 0.00 0.00 0.00 87 1013.0
20260509100522 8 0.0 0.0 0.00 0.00 0.00 86 1013.0
20260509095612 8 0.0 0.0 0.00 0.00 0.00 86 1012.9
20260509094522 8 0.0 0.0 0.00 0.00 0.00 86 1013.2
20260509093522 7 0.0 0.0 0.00 0.00 0.00 87 1012.6
20260509092612 7 0.0 0.0 0.00 0.00 0.00 88 1012.4
20260509091522 7 0.0 0.0 0.00 0.00 0.00 88 1012.5
20260509090522 8 0.0 0.0 0.00 0.00 0.00 88 1012.7
20260509085522 8 0.0 0.0 0.00 0.00 0.00 88 1012.7
20260509084522 8 0.0 0.0 0.00 0.00 0.00 87 1012.8
20260509083521 8 0.0 0.0 0.00 0.00 0.00 88 1012.5
20260509082521 8 0.0 0.0 0.00 0.00 0.00 88 1012.6
20260509081521 8 0.0 0.0 0.00 0.00 0.00 89 1012.9
20260509080521 8 0.0 0.0 0.00 0.00 0.00 89 1013.0
20260509075521 8 0.0 0.0 0.00 0.00 0.00 89 1013.1
20260509074521 8 0.0 0.0 0.00 0.00 0.00 89 1013.1
20260509073521 8 0.0 0.0 0.00 0.00 0.00 89 1012.9
20260509072521 8 0.0 0.0 0.00 0.00 0.00 89 1012.9
20260509071521 8 0.0 0.0 0.00 0.00 0.00 90 1013.2
20260509070521 8 0.0 0.0 0.00 0.00 0.00 90 1013.2
20260509065521 8 0.0 0.0 0.00 0.00 0.00 90 1013.5
20260509064521 9 0.0 0.0 0.00 0.00 0.00 90 1013.8
20260509063546 9 0.0 0.0 0.00 0.00 0.00 90 1013.9
20260509062546 9 0.0 0.0 0.00 0.00 0.00 90 1013.9
20260509061521 10 0.0 0.0 0.00 0.00 0.00 90 1014.1
20260509060546 10 0.0 0.0 0.00 0.00 0.00 90 1014.4